GW3329 Weather Reports


time (UTC)temp
C
wind
direction
speed
KPH
gust
KPH
rain 1hr
cm
rain 24hr
cm
rain mn
cm
humidity
%
barometer
mb
20260507052602 13 225 0.0 0.0 0.00 0.00 0.00 88 1021.0
20260507052058 13 226 0.0 0.0 0.00 0.00 0.00 87 1020.9
20260507051555 13 226 0.0 0.0 0.00 0.00 0.00 87 1021.0
20260507051052 13 227 0.0 0.0 0.00 0.00 0.00 87 1020.9
20260507050549 13 228 0.0 0.0 0.00 0.00 0.00 87 1020.9
20260507050045 13 228 0.0 0.0 0.00 0.00 0.00 87 1021.0
20260507045542 13 228 0.0 0.0 0.00 0.00 0.00 87 1020.9
20260507045039 13 229 0.0 0.0 0.00 0.00 0.00 86 1020.9
20260507044536 13 229 0.0 0.0 0.00 0.00 0.00 87 1021.0
20260507044033 13 229 0.0 0.0 0.00 0.00 0.00 87 1021.1
20260507043528 13 229 0.0 0.0 0.00 0.00 0.00 86 1020.9
20260507043026 13 229 0.0 0.0 0.00 0.00 0.00 86 1021.0
20260507042522 13 229 0.0 0.0 0.00 0.00 0.00 85 1020.8
20260507042017 13 229 0.0 0.0 0.00 0.00 0.00 85 1020.8
20260507041515 13 229 0.0 0.0 0.00 0.00 0.00 85 1020.9
20260507041012 13 229 0.0 0.0 0.00 0.00 0.00 84 1020.8
20260507040508 14 229 0.0 0.0 0.00 0.00 0.00 83 1020.9
20260507040004 14 230 0.0 0.0 0.00 0.00 0.00 83 1020.7
20260507035500 15 230 0.0 0.0 0.00 0.00 0.00 81 1020.7
20260507034956 15 237 0.0 0.0 0.00 0.00 0.00 82 1020.5
20260507034454 14 225 0.0 0.0 0.00 0.00 0.00 83 1020.7
20260507033952 14 191 0.0 0.0 0.00 0.00 0.00 83 1020.8
20260507033449 14 183 0.0 0.0 0.00 0.00 0.00 82 1020.6
20260507032946 14 180 0.0 0.0 0.00 0.00 0.00 81 1020.8
20260507032443 15 193 0.0 0.0 0.00 0.00 0.00 81 1020.3
20260507031939 15 177 0.0 0.0 0.00 0.00 0.00 80 1020.4
20260507031436 15 177 0.0 0.0 0.00 0.00 0.00 78 1020.6
20260507030933 15 177 0.0 0.0 0.00 0.00 0.00 78 1020.4
20260507030430 15 169 0.0 0.0 0.00 0.00 0.00 77 1020.3
20260507025927 15 170 0.0 0.0 0.00 0.00 0.00 76 1020.0
20260507025424 15 164 0.0 0.0 0.00 0.00 0.00 76 1020.2
20260507024922 15 156 0.0 0.0 0.00 0.00 0.00 75 1019.9
20260507024419 16 159 0.0 0.0 0.00 0.00 0.00 74 1020.1
20260507023915 16 168 0.0 0.0 0.00 0.00 0.00 73 1019.9
20260507023412 16 142 0.0 0.0 0.00 0.00 0.00 73 1020.0
20260507022909 16 143 0.0 0.0 0.00 0.00 0.00 72 1020.0
20260507022406 16 143 0.0 0.0 0.00 0.00 0.00 71 1020.0
20260507021901 16 162 0.0 0.0 0.00 0.00 0.00 71 1019.8
20260507021357 17 169 0.0 1.6 0.00 0.00 0.00 70 1020.0
20260507020855 17 175 1.6 3.2 0.00 0.00 0.00 69 1019.9
20260507020351 17 162 0.0 4.8 0.00 0.00 0.00 68 1019.8
20260507015848 17 142 0.0 3.2 0.00 0.00 0.00 68 1019.9
20260507015346 17 167 0.0 1.6 0.00 0.00 0.00 67 1019.8
20260507014844 17 171 0.0 4.8 0.00 0.00 0.00 67 1019.7
20260507014339 17 290 3.2 6.4 0.00 0.00 0.00 68 1020.0
20260507013836 18 263 4.8 4.8 0.00 0.00 0.00 65 1019.7
20260507013333 18 244 1.6 4.8 0.00 0.00 0.00 65 1019.8
20260507012831 18 42 1.6 6.4 0.00 0.00 0.00 64 1019.9
20260507012326 18 267 3.2 6.4 0.00 0.00 0.00 62 1019.9
20260507011824 19 162 0.0 1.6 0.00 0.00 0.00 61 1019.8
20260507011320 19 102 0.0 3.2 0.00 0.00 0.00 61 1019.7
20260507010820 19 171 0.0 4.8 0.00 0.00 0.00 60 1019.4
20260507010316 19 78 1.6 11.3 0.00 0.00 0.00 61 1019.7
20260507005813 20 55 0.0 6.4 0.00 0.00 0.00 62 1019.9
20260507005309 20 132 0.0 9.7 0.00 0.00 0.00 60 1019.9
20260507004801 20 356 1.6 3.2 0.00 0.00 0.00 60 1019.6
20260507004258 20 222 3.2 6.4 0.00 0.00 0.00 60 1019.7
20260507003754 20 176 0.0 6.4 0.00 0.00 0.00 60 1019.8
20260507003250 20 168 3.2 4.8 0.00 0.00 0.00 59 1019.8
20260507002746 20 266 4.8 6.4 0.00 0.00 0.00 60 1019.7
20260507002242 20 296 1.6 11.3 0.00 0.00 0.00 60 1019.9
20260507001739 20 189 1.6 6.4 0.00 0.00 0.00 59 1019.6
20260507001237 21 189 1.6 9.7 0.00 0.00 0.00 59 1019.9
20260507000733 20 83 1.6 4.8 0.00 0.00 0.00 60 1019.6
20260507000228 21 205 1.6 4.8 0.00 0.00 0.00 57 1019.7
20260506235725 20 94 1.6 4.8 0.00 0.00 0.00 61 1019.3
20260506235221 21 199 4.8 12.9 0.00 0.00 0.00 59 1019.4
20260506234718 20 173 3.2 4.8 0.00 0.00 0.00 61 1019.3
20260506234215 21 179 4.8 6.4 0.00 0.00 0.00 59 1019.8
20260506233713 21 192 3.2 4.8 0.00 0.00 0.00 58 1019.6
20260506233209 20 155 3.2 9.7 0.00 0.00 0.00 61 1019.8
20260506232707 21 331 3.2 6.4 0.00 0.00 0.00 59 1019.6
20260506232200 20 215 3.2 11.3 0.00 0.00 0.00 59 1019.8
20260506231658 21 227 6.4 11.3 0.00 0.00 0.00 59 1019.8
20260506231157 21 169 1.6 6.4 0.00 0.00 0.00 57 1019.9
20260506230653 21 244 6.4 11.3 0.00 0.00 0.00 58 1019.9
20260506230150 21 290 3.2 9.7 0.00 0.00 0.00 58 1019.8
20260506225646 21 158 1.6 6.4 0.00 0.00 0.00 58 1020.0
20260506225143 21 238 4.8 6.4 0.00 0.00 0.00 57 1019.7
20260506224639 21 186 6.4 11.3 0.00 0.00 0.00 58 1020.0
20260506224136 21 250 3.2 6.4 0.00 0.00 0.00 57 1020.0
20260506223633 21 287 3.2 9.7 0.00 0.00 0.00 58 1020.2
20260506223128 21 50 0.0 9.7 0.00 0.00 0.00 58 1020.1
20260506222626 22 177 0.0 6.4 0.00 0.00 0.00 58 1020.2
20260506222122 22 199 3.2 11.3 0.00 0.00 0.00 57 1020.2
20260506221620 22 205 3.2 11.3 0.00 0.00 0.00 58 1020.1
20260506221118 21 116 1.6 6.4 0.00 0.00 0.00 59 1020.4
20260506220614 21 295 8.0 9.7 0.00 0.00 0.00 57 1020.5
20260506220109 21 31 3.2 4.8 0.00 0.00 0.00 57 1020.7
20260506215606 21 257 1.6 9.7 0.00 0.00 0.00 58 1020.7
20260506215102 22 289 1.6 4.8 0.00 0.00 0.00 56 1020.7
20260506214559 22 237 1.6 6.4 0.00 0.00 0.00 55 1020.6
20260506214056 22 191 1.6 11.3 0.00 0.00 0.00 55 1020.8
20260506213554 21 172 0.0 6.4 0.00 0.00 0.00 56 1020.7
20260506213051 21 336 1.6 3.2 0.00 0.00 0.00 54 1020.7
20260506212548 22 344 1.6 11.3 0.00 0.00 0.00 53 1020.7
20260506212043 22 159 1.6 11.3 0.00 0.00 0.00 55 1021.0
20260506211539 21 250 6.4 12.9 0.00 0.00 0.00 56 1020.6
20260506211036 21 60 0.0 4.8 0.00 0.00 0.00 57 1020.9
20260506210533 21 285 6.4 11.3 0.00 0.00 0.00 59 1021.0
20260506210029 21 170 3.2 9.7 0.00 0.00 0.00 60 1021.0
20260506205526 21 21 4.8 12.9 0.00 0.00 0.00 60 1020.9
20260506205021 21 221 3.2 6.4 0.00 0.00 0.00 59 1020.7
20260506204520 21 294 3.2 12.9 0.00 0.00 0.00 61 1021.0
20260506204016 21 293 9.7 17.7 0.00 0.00 0.00 61 1021.0
20260506203515 21 317 4.8 6.4 0.00 0.00 0.00 60 1021.1
20260506203010 21 117 0.0 6.4 0.00 0.00 0.00 61 1021.3
20260506202508 21 246 3.2 12.9 0.00 0.00 0.00 60 1021.2
20260506202004 21 29 1.6 12.9 0.00 0.00 0.00 60 1021.3
20260506201502 21 269 3.2 12.9 0.00 0.00 0.00 60 1021.0
20260506200958 22 136 3.2 14.5 0.00 0.00 0.00 60 1021.1
20260506200455 22 331 3.2 4.8 0.00 0.00 0.00 58 1021.1
20260506195951 21 164 0.0 9.7 0.00 0.00 0.00 61 1021.1
20260506195449 21 172 1.6 11.3 0.00 0.00 0.00 61 1021.5
20260506194945 21 254 3.2 11.3 0.00 0.00 0.00 61 1021.4
20260506194442 22 294 6.4 17.7 0.00 0.00 0.00 59 1021.2
20260506193939 22 284 6.4 14.5 0.00 0.00 0.00 59 1021.3
20260506193436 22 199 1.6 4.8 0.00 0.00 0.00 56 1021.2
20260506192932 22 153 0.0 1.6 0.00 0.00 0.00 55 1021.4
20260506192429 22 91 3.2 6.4 0.00 0.00 0.00 55 1021.6
20260506191926 21 161 3.2 9.7 0.00 0.00 0.00 55 1021.4
20260506191423 22 145 0.0 3.2 0.00 0.00 0.00 53 1021.6
20260506190920 21 133 1.6 6.4 0.00 0.00 0.00 55 1021.5
20260506190416 21 250 3.2 9.7 0.00 0.00 0.00 54 1021.6
20260506185913 21 64 0.0 6.4 0.00 0.00 0.00 54 1021.6
20260506185410 21 263 9.7 11.3 0.00 0.00 0.00 52 1021.7
20260506184907 21 226 1.6 4.8 0.00 0.00 0.00 54 1021.8
20260506184404 21 32 0.0 4.8 0.00 0.00 0.00 55 1021.9
20260506183902 21 36 3.2 11.3 0.00 0.00 0.00 55 1021.8
20260506183356 21 267 3.2 4.8 0.00 0.00 0.00 55 1021.7
20260506182854 21 296 4.8 11.3 0.00 0.00 0.00 55 1021.9
20260506182351 21 189 4.8 6.4 0.00 0.00 0.00 55 1021.7
20260506181848 21 78 0.0 4.8 0.00 0.00 0.00 55 1021.9
20260506181346 21 275 3.2 12.9 0.00 0.00 0.00 56 1021.7
20260506180843 20 227 1.6 4.8 0.00 0.00 0.00 57 1021.9
20260506180339 20 80 1.6 3.2 0.00 0.00 0.00 57 1022.0
20260506175836 20 129 1.6 6.4 0.00 0.00 0.00 58 1022.0
20260506175333 20 133 0.0 4.8 0.00 0.00 0.00 57 1021.9
20260506174830 20 265 4.8 6.4 0.00 0.00 0.00 57 1021.9
20260506174327 20 199 0.0 4.8 0.00 0.00 0.00 57 1021.7
20260506173824 20 155 1.6 4.8 0.00 0.00 0.00 57 1022.0
20260506173321 19 135 1.6 9.7 0.00 0.00 0.00 59 1021.8
20260506172818 20 249 1.6 12.9 0.00 0.00 0.00 58 1021.9
20260506172315 20 65 1.6 4.8 0.00 0.00 0.00 59 1022.1
20260506171812 20 234 6.4 6.4 0.00 0.00 0.00 57 1022.0
20260506171309 18 133 0.0 4.8 0.00 0.00 0.00 60 1022.1
20260506170807 19 23 1.6 3.2 0.00 0.00 0.00 60 1021.8
20260506170303 18 93 0.0 4.8 0.00 0.00 0.00 62 1021.9
20260506165802 19 148 3.2 4.8 0.00 0.00 0.00 58 1022.0
20260506165259 19 164 1.6 3.2 0.00 0.00 0.00 61 1021.9
20260506164755 19 221 3.2 4.8 0.00 0.00 0.00 59 1021.9
20260506164252 19 194 1.6 11.3 0.00 0.00 0.00 60 1021.9
20260506163749 18 37 1.6 4.8 0.00 0.00 0.00 59 1022.0
20260506163244 18 163 0.0 4.8 0.00 0.00 0.00 58 1021.8
20260506162740 18 85 1.6 4.8 0.00 0.00 0.00 61 1021.9
20260506162238 18 210 0.0 0.0 0.00 0.00 0.00 62 1022.0
20260506161730 18 76 1.6 3.2 0.00 0.00 0.00 62 1021.9
20260506161227 18 284 1.6 4.8 0.00 0.00 0.00 63 1022.0
20260506160724 17 90 0.0 1.6 0.00 0.00 0.00 65 1021.8
20260506160221 17 100 0.0 4.8 0.00 0.00 0.00 64 1021.8
20260506155719 17 211 1.6 3.2 0.00 0.00 0.00 64 1021.9
20260506155216 17 157 0.0 3.2 0.00 0.00 0.00 68 1022.1
20260506153318 17 145 1.6 3.2 0.00 0.00 0.00 67 1021.7
20260506152815 16 148 1.6 3.2 0.00 0.00 0.00 69 1021.9
20260506152312 16 123 0.0 1.6 0.00 0.00 0.00 70 1021.8
20260506151810 15 124 1.6 3.2 0.00 0.00 0.00 74 1021.7
20260506151307 15 92 3.2 4.8 0.00 0.00 0.00 74 1022.0
20260506150804 15 124 1.6 3.2 0.00 0.00 0.00 74 1021.9
20260506150304 15 96 3.2 6.4 0.00 0.00 0.00 77 1021.9
20260506145757 15 88 3.2 3.2 0.00 0.00 0.00 75 1021.7
20260506145254 14 94 4.8 6.4 0.00 0.00 0.00 77 1021.8
20260506144752 14 112 0.0 3.2 0.00 0.00 0.00 78 1021.8
20260506144248 13 123 1.6 3.2 0.00 0.00 0.00 80 1021.8
20260506143746 13 115 0.0 1.6 0.00 0.00 0.00 81 1021.9
20260506143243 13 117 0.0 0.0 0.00 0.00 0.00 82 1021.9
20260506142742 13 92 3.2 4.8 0.00 0.00 0.00 82 1021.7
20260506142239 12 124 0.0 0.0 0.00 0.00 0.00 83 1021.8
20260506141738 12 96 0.0 0.0 0.00 0.00 0.00 85 1021.7
20260506141235 11 99 0.0 0.0 0.00 0.00 0.00 87 1021.6
20260506140732 11 94 1.6 3.2 0.00 0.00 0.00 87 1021.8
20260506140229 11 124 0.0 0.0 0.00 0.00 0.00 88 1021.7
20260506135726 11 125 0.0 0.0 0.00 0.00 0.00 88 1021.8
20260506135222 10 118 0.0 0.0 0.00 0.00 0.00 88 1021.6
20260506134719 10 118 0.0 0.0 0.00 0.00 0.00 90 1021.4
20260506134215 10 117 0.0 0.0 0.00 0.00 0.00 92 1021.8
20260506133713 10 126 0.0 0.0 0.00 0.00 0.00 93 1021.6
20260506133209 9 130 0.0 0.0 0.00 0.00 0.00 94 1021.5
20260506132707 8 130 0.0 0.0 0.00 0.00 0.00 94 1021.6
20260506132203 8 130 0.0 0.0 0.00 0.00 0.00 94 1021.4
20260506131701 8 130 0.0 0.0 0.00 0.00 0.00 95 1021.6
20260506131157 8 130 0.0 0.0 0.00 0.00 0.00 95 1021.6
20260506130654 8 130 0.0 0.0 0.00 0.00 0.00 94 1021.4
20260506130151 8 130 0.0 0.0 0.00 0.00 0.00 94 1021.5
20260506125649 8 130 0.0 0.0 0.00 0.00 0.00 94 1021.4
20260506125147 8 130 0.0 0.0 0.00 0.00 0.00 94 1021.5
20260506124645 8 130 0.0 0.0 0.00 0.00 0.00 94 1021.2
20260506124142 8 130 0.0 0.0 0.00 0.00 0.00 94 1021.0
20260506123639 8 128 0.0 0.0 0.00 0.00 0.00 93 1021.4
20260506123138 9 128 0.0 0.0 0.00 0.00 0.00 93 1021.1
20260506122635 9 146 0.0 0.0 0.00 0.00 0.00 93 1020.9
20260506122132 9 154 0.0 0.0 0.00 0.00 0.00 93 1021.0
20260506121629 9 138 0.0 0.0 0.00 0.00 0.00 93 1020.9
20260506121126 9 138 0.0 0.0 0.00 0.00 0.00 93 1020.9
20260506120624 9 141 0.0 0.0 0.00 0.00 0.00 93 1021.1
20260506120121 9 137 0.0 0.0 0.00 0.00 0.00 93 1021.0
20260506115620 9 132 0.0 0.0 0.00 0.00 0.00 93 1021.0
20260506115117 9 148 0.0 0.0 0.00 0.00 0.00 93 1020.9
20260506114614 9 134 0.0 1.6 0.00 0.00 0.00 94 1020.9
20260506114112 9 121 0.0 0.0 0.00 0.00 0.00 94 1020.8
20260506113610 9 105 0.0 0.0 0.00 0.00 0.00 94 1021.0
20260506113107 9 105 0.0 0.0 0.00 0.00 0.00 94 1020.8
20260506112604 9 104 0.0 0.0 0.00 0.00 0.00 94 1021.0
20260506112102 9 104 0.0 0.0 0.00 0.00 0.00 94 1021.1
20260506111559 9 103 0.0 0.0 0.00 0.00 0.00 93 1020.9
20260506111056 9 103 0.0 0.0 0.00 0.00 0.00 93 1021.0
20260506110554 9 102 0.0 0.0 0.00 0.00 0.00 93 1020.7
20260506110051 9 102 0.0 0.0 0.00 0.00 0.00 93 1020.7
20260506105547 9 101 0.0 1.6 0.00 0.00 0.00 93 1020.9
20260506105044 9 123 0.0 0.0 0.00 0.00 0.00 93 1020.8
20260506104542 9 133 0.0 0.0 0.00 0.00 0.00 94 1020.5
20260506104040 9 125 0.0 0.0 0.00 0.00 0.00 94 1020.8
20260506103537 9 136 0.0 0.0 0.00 0.00 0.00 94 1020.8
20260506103033 9 145 0.0 0.0 0.00 0.00 0.00 94 1020.8
20260506102532 9 145 0.0 0.0 0.00 0.00 0.00 95 1021.0
20260506102029 9 145 0.0 0.0 0.00 0.00 0.00 95 1020.9
20260506101525 9 145 0.0 0.0 0.00 0.00 0.00 95 1020.8
20260506101023 9 145 0.0 0.0 0.00 0.00 0.00 95 1020.8
20260506100521 8 145 0.0 0.0 0.00 0.00 0.00 95 1020.9
20260506100019 8 145 0.0 0.0 0.00 0.00 0.00 95 1020.9
20260506095517 8 145 0.0 0.0 0.00 0.00 0.00 95 1021.1
20260506095013 8 146 0.0 0.0 0.00 0.00 0.00 95 1021.0
20260506094511 8 146 0.0 0.0 0.00 0.00 0.00 95 1021.2
20260506094009 8 146 0.0 0.0 0.00 0.00 0.00 95 1021.2
20260506093507 8 146 0.0 0.0 0.00 0.00 0.00 95 1021.1
20260506093004 8 146 0.0 0.0 0.00 0.00 0.00 95 1021.0
20260506092502 9 146 0.0 0.0 0.00 0.00 0.00 95 1021.1
20260506091958 9 146 0.0 0.0 0.00 0.00 0.00 95 1021.1
20260506091457 9 146 0.0 0.0 0.00 0.00 0.00 95 1021.2
20260506090953 9 146 0.0 0.0 0.00 0.00 0.00 95 1021.2
20260506090451 9 145 0.0 0.0 0.00 0.00 0.00 95 1021.3
20260506085947 9 145 0.0 0.0 0.00 0.00 0.00 95 1021.2
20260506085444 9 145 0.0 0.0 0.00 0.00 0.00 95 1021.3
20260506084941 9 145 0.0 0.0 0.00 0.00 0.00 95 1021.3
20260506084437 9 145 0.0 0.0 0.00 0.00 0.00 95 1021.3
20260506083933 9 145 0.0 0.0 0.00 0.00 0.00 95 1021.4
20260506083431 9 145 0.0 0.0 0.00 0.00 0.00 95 1021.4
20260506082928 9 145 0.0 0.0 0.00 0.00 0.00 95 1021.5
20260506082425 9 145 0.0 0.0 0.00 0.00 0.00 94 1021.6
20260506081921 9 145 0.0 0.0 0.00 0.00 0.00 94 1021.5
20260506081420 10 145 0.0 0.0 0.00 0.00 0.00 94 1021.4
20260506080916 9 145 0.0 0.0 0.00 0.00 0.00 94 1021.4
20260506080413 9 145 0.0 0.0 0.00 0.00 0.00 94 1021.6
20260506073357 10 145 0.0 0.0 0.00 0.00 0.00 93 1021.6
20260506072854 10 145 0.0 0.0 0.00 0.00 0.00 93 1021.5
20260506072351 10 145 0.0 0.0 0.00 0.00 0.00 94 1021.4
20260506071849 10 145 0.0 0.0 0.00 0.00 0.00 94 1021.5
20260506071347 10 145 0.0 0.0 0.00 0.00 0.00 93 1021.3
20260506070843 10 145 0.0 0.0 0.00 0.00 0.00 93 1021.3
20260506070341 10 145 0.0 0.0 0.00 0.00 0.00 93 1021.2
20260506062318 10 145 0.0 0.0 0.00 0.00 0.00 92 1020.8
20260506061814 10 145 0.0 0.0 0.00 0.00 0.00 91 1020.8
20260506061310 11 145 0.0 0.0 0.00 0.00 0.00 91 1020.8
20260506060809 11 145 0.0 0.0 0.00 0.00 0.00 90 1020.8
20260506060307 11 145 0.0 0.0 0.00 0.00 0.00 90 1020.8